Grand Island, NE

1:40 AM CDT on October 23, 2014 (GMT -0500)
Barr | Change Station
CLOSE
Current Station
Personal Weather Station
Location: Grand Island, NE
Elevation: 1864 ft
Nearby Weather Stations
Active Advisory: Dense Fog Advisory

Elev 1864 ft 40.90 °N, 98.34 °W | Updated 14 minutes ago

Fog
Fog
55.2 °F
Feels Like 55.2 °F
N
0.0
Wind Variable Wind from WNW

Today
High -- | Low -- °F
--% Chance of Precip.
Yesterday
High -- | Low -- °F
Precip. -- in
7:53 AM 6:41 PM
Waning Crescent, 0% visible
Pressure 30.03 in
Visibility 0.2 miles
Clouds
Dew Point 55 °F
Humidity 99%
Rainfall 0.00 in
Snow Depth Not available.
UV Not available.
Pollen 2.60 out of 12
Air Quality Not available.
Flu Activity Sporadic
METAR KGRI 230553Z AUTO 30003KT 1/4SM R35/1400V1600FT FG VV002 13/12 A3005 RMK AO2 SLP169 T01280122 10167 20122 402280122 50001

More Conditions Fewer Conditions

Pressure 30.03 in
Visibility 0.2 miles
Clouds
Dew Point 55 °F
Humidity 99%
Rainfall 0.00 in
Snow Depth Not available.
UV Not available.
Pollen 2.60 out of 12
Air Quality Not available.
Flu Activity Sporadic
METAR KGRI 230553Z AUTO 30003KT 1/4SM R35/1400V1600FT FG VV002 13/12 A3005 RMK AO2 SLP169 T01280122 10167 20122 402280122 50001

More Conditions Fewer Conditions

10-Day Weather Forecast

Almanac

Astronomy

Oct. 23, 2014 Rise Set
Actual Time 7:53 AM CDT 6:41 PM CDT
Civil Twilight 7:25 AM CDT 7:09 PM CDT
Nautical Twilight 6:53 AM CDT 7:41 PM CDT
Astronomical Twilight 6:21 AM CDT 8:12 PM CDT
Moon 7:34 AM CDT 6:43 PM CDT
Length of Visible Light 11h 43m
Length of Day
10h 47m
Tomorrow will be 2m 31s shorter.
Waning Crescent, 0% of the Moon is Illuminated
Today
Waning Crescent
Oct 23
New
Oct 30
First Quarter
Nov 6
Full
Nov 14
Last Quarter

Today's Extremes

State Highs State Lows

Community

WunderPhotos

Upload Photos

1,764,194 photos uploaded!

Nearby

Snow Depth

Station Depth Elevation
No new snow has been reported.

Earthquake Activity

City Distance Mag. Time & Date
No recent earthquake activity has been reported nearby.
Minimum magnitude displayed is 2.5.

Coastal Water Temperatures

Place Temperature
No Stations Reporting

Nearby Weather Stations